www.pogodaiklimat.ru

Погода и климат >> Архив погоды >> Россия >> Крым >> Ялта


АРХИВ ПОГОДЫ в Ялте

Время (UTC), дата Ветер
(напр.,м/с)
 
Видим.   Явления Облачность Т
(С)
Тd
(С)
f
(%)
Тe
(С)
Тes
(С)
Комфортность P
(гПа)
Po
(гПа)
Тmin
(С)
Tmax
(С)
R
(мм)
R24
(мм)
S
(см)
18 16.07 СВ 1 20 км 3/1 1000 м
[Cu hum Ci fib]
+21.8 +16.9 74 +26 +26 душно 1008.6 1000.3 +29.1 0.3
21 16.07 штиль 0 20 км 1/0
[Ci fib]
+20.4 +12.1 59 +22 +22 комфорт 1009.7 1001.3
00 17.07 штиль 0 20 км 3/0
[Ci fib]
+19.4 +10.7 57 +20 +20 прохладно 1009.7 1001.3
03 17.07 штиль 0 20 км 9/1 1000 м
[Cu med, cong Ci fib]
+19.8 +11.9 60 +21 +21 комфорт 1008.4 1000.0 +19.4
06 17.07 СВ 1 20 км 9/0
[Ac cuf Ci]
+24.1 +14.1 54 +27 +34 жарко 1008.2 1000.0 +19.4
09 17.07 В 2 10 км слаб. ливневой дождь 8/5 1000 м
[Cb cap Ac cuf Ci fib]
+25.0 +18.4 67 +30 +36 душно 1008.1 999.9
12 17.07 В 1 10 км слаб. ливневой дождь 8/6 1000 м
[Cb cap Ci sp]
+23.4 +19.2 77 +30 +36 очень
душно
1008.0 999.8
15 17.07 СЗ 2 10 км в посл. час ливневой дождь 9/9 1000 м
[Cb cap]
+21.2 +19.7 91 +26 +26 душно 1007.9 999.6 2
18 17.07 СЗ 1 20 км {ливн. осадки} 1/0
[Ac cuf]
+20.5 +19.1 92 +26 +26 душно 1007.8 999.5 +26.0 2
21 17.07 С 1 20 км ясно +19.8 +15.6 77 +23 +23 комфорт 1008.4 1000.0
00 18.07 СВ 1 20 км ясно +18.9 +13.1 69 +21 +21 комфорт 1008.4 1000.0
03 18.07 СЗ 1 20 км 3/0
[Ac cast Ci fib]
+19.0 +13.0 68 +21 +21 комфорт 1007.9 999.5 +18.6
06 18.07 СВ 1 20 км 1/0
[Ci fib]
+26.6 +15.3 50 +29 +39 жарко 1008.6 1000.4 +18.6
09 18.07 ЮВ 2 20 км 3/3 1000 м
[Cu med, cong Ci fib]
+27.2 +14.9 47 +30 +44 душно 1010.9 1002.7
12 18.07 ЮВ 1 20 км 9/8 1000 м
[Cu med, cong Ci fib]
+26.4 +13.5 45 +28 +30 жарко 1010.9 1002.7
15 18.07 СВ 1 20 км {ливн. осадки} 9/3 1000 м
[Cu med, cong Ac trans Ci sp]
+25.2 +15.7 56 +28 +30 жарко 1010.2 1002.0 0.0
18 18.07 штиль 0 20 км {ливн. осадки} 8/3 1000 м
[Cu med, cong Ac trans]
+25.2 +14.1 50 +28 +28 жарко 1011.6 1003.4 +28.7 0.0
21 18.07 СЗ 2 20 км 3/0
[Ci fib]
+23.6 +12.3 49 +25 +25 комфорт 1013.6 1005.3
00 19.07 СЗ 2 20 км 1 балл +22.8 +11.8 50 +25 +25 комфорт 1013.6 1005.3
03 19.07 СЗ 2 20 км 1/0
[Ci fib]
+22.0 +11.9 53 +24 +25 комфорт 1014.2 1005.9 +20.8
06 19.07 СВ 1 20 км 8/8 1000 м
[Cu med, cong Ci fib]
+25.8 +16.8 58 +30 +32 душно 1015.0 1006.8 +20.8
09 19.07 ЮВ 2 20 км 8/5 1000 м
[Cb cap Ac trans Ci sp]
+25.9 +16.7 57 +30 +35 душно 1017.6 1009.3
12 19.07 ЮВ 1 20 км 9/5 1000 м
[Cb calv Ac As Ci sp]
+25.5 +16.6 58 +29 +31 душно 1017.6 1009.3
15 19.07 ЮВ 1 20 км {ливн. осадки} 9/8 1000 м
[Cb cap Ac cuf]
+25.3 +16.8 59 +29 +29 душно 1016.4 1008.1 0.0
18 19.07 СЗ 1 20 км {ливн. осадки} 1/0
[Ac cuf]
+22.4 +14.9 63 +26 +26 жарко 1017.2 1008.9 +27.4 0.0
21 19.07 СЗ 1 20 км ясно +21.1 +13.8 63 +24 +24 комфорт 1019.1 1010.7
00 20.07 СЗ 1 20 км ясно +20.4 +11.0 55 +23 +23 комфорт 1019.2 1010.7
03 20.07 СЗ 2 20 км 1/0
[Ci fib]
+21.8 +11.7 53 +24 +24 комфорт 1018.3 1009.9 +20.4
06 20.07 СВ 1 20 км 1/1 1000 м
[Cu hum]
+27.8 +14.8 45 +30 +39 жарко 1018.6 1010.4 +20.4
09 20.07 В 1 20 км 3/3 1000 м
[Cu med, cong]
+28.0 +14.6 44 +30 +47 жарко 1020.2 1012.0
12 20.07 В 2 20 км 4/3 1000 м
[Cu med, cong Ci fib]
+28.0 +16.0 48 +31 +40 душно 1020.2 1012.0
15 20.07 Ю 1 20 км 6/6 1000 м
[Sc diur, vesp]
+25.9 +17.5 60 +30 +31 душно 1019.0 1010.7
18 20.07 З 2 20 км ясно +23.2 +15.5 62 +27 +27 душно 1019.1 1010.7 +28.8
21 20.07 СЗ 2 20 км ясно +23.4 +12.1 49 +26 +26 жарко 1019.1 1010.7
00 21.07 штиль 0 20 км ясно +22.8 +12.4 52 +26 +26 жарко 1019.1 1010.7
03 21.07 СЗ 2 20 км 1/0
[Ac cast]
+22.0 +11.0 50 +24 +24 комфорт 1017.1 1008.7 +21.0
06 21.07 С 1 20 км 3/3 1000 м
[Cu med, cong]
+29.3 +16.0 45 +32 +39 душно 1016.6 1008.5 +21.0
09 21.07 ЮВ 2 20 км 8/8 1000 м
[Cu med, cong]
+30.8 +16.8 43 +34 +40 очень
душно
1017.4 1009.3
12 21.07 ЮВ 1 20 км 6/6 1000 м
[Cu med, cong]
+31.6 +17.1 42 +35 +42 очень
душно
1017.4 1009.3
15 21.07 ЮВ 1 20 км 6/6 1000 м
[Cu med, cong]
+29.6 +15.3 42 +32 +34 душно 1017.5 1009.3
18 21.07 СЗ 2 20 км ясно +25.4 +14.5 51 +28 +28 жарко 1017.6 1009.3 +31.8
21 21.07 СЗ 2 20 км ясно +25.4 +12.9 46 +27 +27 жарко 1017.6 1009.3
00 22.07 С 2 20 км ясно +26.5 +14.3 47 +29 +29 жарко 1017.6 1009.3
03 22.07 В 1 20 км ясно +23.4 +16.9 67 +29 +29 душно 1017.0 1008.7 +23.4
06 22.07 В 1 20 км ясно +27.3 +18.0 57 +32 +42 очень
душно
1017.5 1009.3 +23.3
09 22.07 В 1 20 км 3/3 1000 м
[Cu hum]
+29.4 +20.0 57 +36 +53 опасность
солнечного
удара
1017.5 1009.3
12 22.07 ЮВ 2 20 км 8/8 1000 м
[Cb calv]
+30.4 +15.6 41 +33 +37 душно 1017.5 1009.3
15 22.07 ЮВ 1 20 км 9/8 1000 м
[Cb cap Ac cuf]
+26.4 +22.2 78 +34 +35 очень
душно
1017.5 1009.3
18 22.07 СЗ 1 20 км 9/8 1000 м
[Sc Ac trans]
+25.4 +17.8 63 +30 +30 душно 1015.7 1007.5 +31.9
21 22.07 СЗ 1 20 км 1/1 1000 м
[Sc]
+25.4 +14.8 52 +28 +28 жарко 1016.3 1008.0
00 23.07 С 1 20 км ясно +25.4 +14.5 51 +28 +28 жарко 1015.0 1006.7
03 23.07 С 1 20 км ясно +23.4 +16.2 64 +28 +28 душно 1013.4 1005.1 +22.5
06 23.07 штиль 0 10 км ясно +29.6 +16.7 46 +33 +44 душно 1013.4 1005.3 +22.5
09 23.07 ЮВ 1 20 км 9 баллов +27.9 +18.0 55 +32 +35 душно 1013.5 1005.3
12 23.07 В 1 20 км в посл. час гроза 9/9 1000 м
[Cb cap]
+27.3 +17.9 56 +32 +33 очень
душно
1011.5 1003.3

 

Местоположение метеостанции Ялта (Крым, Россия): широта 44.48 долгота 34.17 высота над уровнем моря 72 м.

В архиве по умолчанию представлена погода в Ялте за последнюю неделю. Архивные данные за месяц целиком и за предыдущие месяцы, начиная с января 2011 года, Вы можете получить, выбрав интересующий диапазон дат из раскрывающегося списка и нажав кнопку "Ввод!".


*Определитесь, кто Вы:
робот инопланетянин человек

Внимание! Время в таблицах - всемирное. Для получения местного времени необходимо прибавить поправку, которая равна 3 ч.

Смотрите также архив погоды в соседних городах и на ближайших метеорологических станциях:

Погода на Ай-Петри (Крым, Россия) (7 км)
Погода в Никитском саду (Крым, Россия) (8 км)
Погода в Алуште (Крым, Россия) (28 км)
Погода на Ангарском Перевале (Крым, Россия) (33 км)
Погода в Почтовом (Крым, Россия) (43 км)
Погода в Симферополе город (Крым, Россия) (52 км)
Погода в Севастополе (город Севастополь, Россия) (53 км)
Погода в Симферополе (Крым, Россия) (63 км)
Погода в Херсонесском Маяке (город Севастополь, Россия) (64 км)
Погода в Белогорске (Крым, Россия) (72 км)

Пояснения к столбцам:

Ветер - указаны скорость ветра в м/с - средняя за 10 мин, порывы в срок и между сроками (в фигурных скобках) и направление, откуда дует ветер: С - северный, СВ - северо-восточный, В - восточный, ЮВ - юго-восточный, Ю - южный, ЮЗ - юго-западный, З - западный, СЗ - северо-западный.
Видимость - горизонтальная дальность видимости в метрах или километрах. При видимости от 1 до 10 км при отсутствии осадков обычно наблюдается дымка, при ухудшении видимости до 1 км и менее - туман. В сухую погоду видимость может ухудшаться дымом, пылью или мглою.
Явления - указаны атмосферные явления, наблюдавшиеся в срок или в последний час перед сроком; фигурными скобками обозначены явления, наблюдавшиеся между сроками (за 1-3 часа до срока); квадратными скобками обозначены град или гололедные отложения с указанием их диаметра в мм.
Облачность - указаны через наклонную черту общая и нижняя облачность в баллах и высота нижней границы облаков в метрах; квадратными скобками обозначены формы облаков: Ci - перистые, Cs - перисто-слоистые, Cc - перисто-кучевые, Ac - высококучевые, As - высокослоистые, Sc - слоисто-кучевые, Ns - слоисто-дождевые, Cu - кучевые, Cb - кучево-дождевые. Подробнее классификацию облаков см. в Атласе облаков (PDF).
T - Температура воздуха - температура, измеренная на высоте 2 м над землей.
Td - Температура точки росы - температура, при понижении до которой содержащийся в воздухе водяной пар достигнет насыщения.
f - Относительная влажность воздуха - влажноcть воздуха, измеренная на высоте 2 м над землей.
Te - Эффективная температура - температура, которую ощущает одетый по сезону человек в тени. Характеристика душности погоды. При расчете учитывается влияние влажности воздуха и скорости ветра на теплоощущения человека.
Tes - Эффективная температура на солнце - температура, которую ощущает человек, с поправкой на солнечный нагрев. Характеристика знойности погоды. Зависит от высоты солнца над горизонтом, облачности и скорости ветра. Ночью, в пасмурную погоду, а также при ветре 12 м/с и более поправка равна нулю.
P - Атмосферное давление - приведенное к уровню моря атмосферное давление.
Po - Атмосферное давление - измеренное на уровне метеостанции атмосферное давление.
Tmin - Минимальная температура - минимум температуры воздуха на высоте 2 м над землей.
Tmax - Максимальная температура - максимум температуры воздуха на высоте 2 м над землей.
R - Количество осадков - Количество выпавших осадков за период времени, мм. При наведении курсора мыши на число - период времени, за который выпало указанное количество осадков.
R24 - Количество осадков - Количество выпавших осадков за 24 часа, мм.
S - Снежный покров - Высота снежного покрова, см. При наведении курсора мыши на число - состояние снежного покрова и степень покрытия местности в баллах.